This is the latest recevied weather packets stored in our database for station/object KC9MWQ-13. If no packets are shown the sender has not sent any weather packets the latest 1 day(s).
| Time | Temp. | Humidity | Pressure | Rain* | Wind** | Luminosity | Snow |
|---|---|---|---|---|---|---|---|
| 1778030263 | 8.33° C | 99% | 1010 hPa | 0 mm | 0 m/s | 0 W/m² | - |
| 1778029959 | 8.33° C | 99% | 1010.1 hPa | 0 mm | 0 m/s | 0 W/m² | - |
| 1778029657 | 8.33° C | 99% | 1010 hPa | 1.27 mm | 0 m/s | 0 W/m² | - |
| 1778029354 | 8.33° C | 99% | 1009.8 hPa | 1.27 mm | 0 m/s | 0 W/m² | - |
| 1778029051 | 8.33° C | 99% | 1009.8 hPa | 1.78 mm | 0 m/s | 0 W/m² | - |
| 1778028748 | 8.33° C | 99% | 1009.8 hPa | 1.78 mm | 0 m/s | 0 W/m² | - |
| 1778028444 | 8.33° C | 99% | 1009.6 hPa | 0 mm | 0 m/s | 0 W/m² | - |
| 1778028142 | 8.33° C | 99% | 1009.8 hPa | 1.27 mm | 0.45 m/s, 302° | 0 W/m² | - |
| 1778027837 | 8.33° C | 99% | 1009.8 hPa | 1.27 mm | 0 m/s | 0 W/m² | - |
| 1778027534 | 8.33° C | 99% | 1009.8 hPa | 0 mm | 0 m/s | 1 W/m² | - |
| 1778027230 | 8.33° C | 99% | 1009.7 hPa | 1.78 mm | 0 m/s | 0 W/m² | - |
| 1778026926 | 8.33° C | 99% | 1009.4 hPa | 1.78 mm | 0.45 m/s, 252° | 2 W/m² | - |
| 1778026622 | 8.33° C | 99% | 1009.5 hPa | 1.78 mm | 0.45 m/s, 251° | 2 W/m² | - |
| 1778026320 | 8.33° C | 99% | 1009.4 hPa | 3.05 mm | 0.45 m/s, 297° | 3 W/m² | - |
| 1778026017 | 8.33° C | 99% | 1009.5 hPa | 3.05 mm | 0.45 m/s, 311° | 6 W/m² | - |
| 1778025714 | 8.33° C | 99% | 1009.2 hPa | 1.78 mm | 0 m/s | 6 W/m² | - |
| 1778025412 | 8.33° C | 99% | 1009 hPa | 1.27 mm | 0.45 m/s, 298° | 8 W/m² | - |
| 1778025109 | 8.33° C | 99% | 1009.3 hPa | 3.05 mm | 0 m/s | 6 W/m² | - |
| 1778024806 | 7.78° C | 99% | 1009.7 hPa | 1.78 mm | 0 m/s | 7 W/m² | - |
| 1778024503 | 7.78° C | 99% | 1009.6 hPa | 1.27 mm | 0 m/s | 13 W/m² | - |
| 1778024200 | 8.33° C | 99% | 1009.7 hPa | 1.27 mm | 0 m/s | 11 W/m² | - |
| 1778023897 | 8.33° C | 99% | 1009.9 hPa | 1.78 mm | 0 m/s | 11 W/m² | - |
| 1778023595 | 8.33° C | 99% | 1009.7 hPa | 1.78 mm | 0 m/s | 12 W/m² | - |
| 1778023292 | 8.33° C | 99% | 1009.5 hPa | 0 mm | 0 m/s | 17 W/m² | - |
| 1778022989 | 8.33° C | 99% | 1009.8 hPa | 1.27 mm | 0 m/s | 18 W/m² | - |
* Rain latest hour (hover to see other rain measurements)
** Current wind speed in m/s (hover to see current wind gust speed)